H1 CPF 2 NER 2025 8 13 9 225 01 glonass137 H2 1705501 9137 42939 2025 8 13 0 0 0 2025 8 16 23 45 0 900 1 1 0 0 0 1 H9 10 0 60900 0.00000 0 15792825.547 12926723.836 15304528.156 10 0 60900 900.00000 0 16766483.959 14359336.253 12778566.031 10 0 60900 1800.00000 0 17652099.116 15452191.365 10004344.427 10 0 60900 2700.00000 0 18391380.208 16204021.560 7035687.684 10 0 60900 3600.00000 0 18928912.907 16626193.872 3930243.674 10 0 60900 4500.00000 0 19214621.907 16742008.425 748364.195 10 0 60900 5400.00000 0 19206028.680 16585504.212 -2448071.333 10 0 60900 6300.00000 0 18870207.772 16199822.770 -5596865.499 10 0 60900 7200.00000 0 18185357.419 15635199.252 -8636721.489 10 0 60900 8100.00000 0 17141916.446 14946666.517 -11508445.870 10 0 60900 9000.00000 0 15743178.649 14191570.204 -14156111.087 10 0 60900 9900.00000 0 14005377.202 13427000.923 -16528153.858 10 0 60900 10800.00000 0 11957234.238 12707253.267 -18578387.204 10 0 60900 11700.00000 0 9638993.501 12081420.053 -20266905.687 10 0 60900 12600.00000 0 7100975.941 11591224.343 -21560865.766 10 0 60900 13500.00000 0 4401718.304 11269181.383 -22435125.988 10 0 60900 14400.00000 0 1605772.243 11137168.411 -22872734.626 10 0 60900 15300.00000 0 -1218744.244 11205462.667 -22865255.628 10 0 60900 16200.00000 0 -4002741.124 11472287.971 -22412926.970 10 0 60900 17100.00000 0 -6678788.504 11923888.525 -21524648.893 10 0 60900 18000.00000 0 -9183677.410 12535126.228 -20217802.760 10 0 60900 18900.00000 0 -11460803.147 13270575.672 -18517904.633 10 0 60900 19800.00000 0 -13462272.886 14086069.955 -16458100.725 10 0 60900 20700.00000 0 -15150650.704 14930631.487 -14078515.000 10 0 60900 21600.00000 0 -16500268.759 15748705.805 -11425462.002 10 0 60900 22500.00000 0 -17498051.461 16482603.712 -8550540.547 10 0 60900 23400.00000 0 -18143819.984 17075048.355 -5509626.305 10 0 60900 24300.00000 0 -18450066.280 17471719.590 -2361783.167 10 0 60900 25200.00000 0 -18441207.957 17623688.207 831885.133 10 0 60900 26100.00000 0 -18152357.084 17489637.367 4009420.559 10 0 60900 27000.00000 0 -17627656.205 17037777.718 7109210.327 10 0 60900 27900.00000 0 -16918252.781 16247375.655 10071177.227 10 0 60900 28800.00000 0 -16079998.106 15109830.490 12837937.797 10 0 60900 29700.00000 0 -15170967.968 13629255.262 15355906.353 10 0 60900 30600.00000 0 -14248909.328 11822536.556 17576324.156 10 0 60900 31500.00000 0 -13368720.073 9718870.386 19456194.607 10 0 60900 32400.00000 0 -12580067.121 7358792.722 20959107.325 10 0 60900 33300.00000 0 -11925242.135 4792743.982 22055936.160 10 0 60900 34200.00000 0 -11437344.068 2079225.919 22725398.524 10 0 60900 35100.00000 0 -11138864.128 -717374.136 22954465.913 10 0 60900 36000.00000 0 -11040732.044 -3529203.102 22738618.113 10 0 60900 36900.00000 0 -11141863.552 -6287507.425 22081936.174 10 0 60900 37800.00000 0 -11429228.325 -8925239.138 20997032.033 10 0 60900 38700.00000 0 -11878436.087 -11379596.143 19504815.406 10 0 60900 39600.00000 0 -12454817.197 -13594392.466 17634101.411 10 0 60900 40500.00000 0 -13114953.329 -15522160.910 15421065.270 10 0 60900 41400.00000 0 -13808594.898 -17125901.114 12908553.305 10 0 60900 42300.00000 0 -14480885.390 -18380400.331 10145262.315 10 0 60900 43200.00000 0 -15074799.435 -19273071.668 7184802.190 10 0 60900 44100.00000 0 -15533691.914 -19804274.476 4084659.168 10 0 60900 45000.00000 0 -15803850.164 -19987103.156 905079.556 10 0 60900 45900.00000 0 -15836940.642 -19846653.049 -2292104.315 10 0 60900 46800.00000 0 -15592245.421 -19418794.281 -5444682.657 10 0 60900 47700.00000 0 -15038592.421 -18748505.460 -8491286.907 10 0 60900 48600.00000 0 -14155896.061 -17887838.004 -11372593.826 10 0 60900 49500.00000 0 -12936241.474 -16893597.747 -14032490.464 10 0 60900 50400.00000 0 -11384464.776 -15824842.672 -16419176.149 10 0 60900 51300.00000 0 -9518203.423 -14740303.377 -18486179.151 10 0 60900 52200.00000 0 -7367413.179 -13695836.133 -20193267.498 10 0 60900 53100.00000 0 -4973370.980 -12742016.857 -21507235.764 10 0 60900 54000.00000 0 -2387204.761 -11921977.994 -22402552.368 10 0 60900 54900.00000 0 331988.811 -11269579.807 -22861854.920 10 0 60900 55800.00000 0 3119360.299 -10807993.032 -22876284.259 10 0 60900 56700.00000 0 5906764.996 -10548752.249 -22445651.156 10 0 60900 57600.00000 0 8625359.719 -10491319.150 -21578432.966 10 0 60900 58500.00000 0 11208231.006 -10623173.231 -20291600.811 10 0 60900 59400.00000 0 13592945.678 -10920425.091 -18610281.200 10 0 60900 60300.00000 0 15723918.182 -11348925.419 -16567259.099 10 0 60900 61200.00000 0 17554496.850 -11865821.894 -14202332.571 10 0 60900 62100.00000 0 19048683.186 -12421497.352 -11561531.921 10 0 60900 63000.00000 0 20182413.741 -12961806.637 -8696218.873 10 0 60900 63900.00000 0 20944352.479 -13430517.020 -5662083.701 10 0 60900 64800.00000 0 21336162.165 -13771848.647 -2518060.124 10 0 60900 65700.00000 0 21372245.123 -13933007.428 674820.649 10 0 60900 66600.00000 0 21078965.910 -13866603.254 3854614.161 10 0 60900 67500.00000 0 20493390.053 -13532851.427 6959662.123 10 0 60900 68400.00000 0 19661593.154 -12901464.523 9929783.757 10 0 60900 69300.00000 0 18636612.304 -11953154.959 12707436.117 10 0 60900 70200.00000 0 17476126.491 -10680685.034 15238821.331 10 0 60900 71100.00000 0 16239963.557 -9089420.086 17474919.992 10 0 60900 72000.00000 0 14987538.139 -7197361.114 19372431.457 10 0 60900 72900.00000 0 13775327.508 -5034654.751 20894603.821 10 0 60900 73800.00000 0 12654490.332 -2642599.965 22011938.503 10 0 60900 74700.00000 0 11668727.198 -72191.532 22702756.681 10 0 60900 75600.00000 0 10852471.566 2617740.769 22953617.347 10 0 60900 76500.00000 0 10229486.096 5362721.713 22759579.313 10 0 60900 77400.00000 0 9811922.585 8095059.924 22124302.167 10 0 60900 78300.00000 0 9599884.607 10746417.904 21059983.884 10 0 60900 79200.00000 0 9581511.296 13250417.847 19587135.604 10 0 60900 80100.00000 0 9733579.134 15545176.360 17734196.894 10 0 60900 81000.00000 0 10022597.110 17575663.784 15536997.692 10 0 60900 81900.00000 0 10406349.920 19295790.540 13038076.035 10 0 60900 82800.00000 0 10835824.960 20670133.731 10285863.488 10 0 60900 83700.00000 0 11257442.373 21675231.771 7333753.045 10 0 60900 84600.00000 0 11615494.278 22300392.548 4239066.753 10 0 60900 85500.00000 0 11854689.897 22547980.716 1061942.825 10 0 60901 0.00000 0 11922698.369 22433171.656 -2135835.839 10 0 60901 900.00000 0 11772580.617 21983182.000 -5292050.206 10 0 60901 1800.00000 0 11365005.905 21236009.232 -8345262.116 10 0 60901 2700.00000 0 10670157.772 20238733.469 -11236020.768 10 0 60901 3600.00000 0 9669246.834 19045453.540 -13908029.831 10 0 60901 4500.00000 0 8355564.763 17714945.094 -16309253.005 10 0 60901 5400.00000 0 6735033.311 16308140.308 -18392935.331 10 0 60901 6300.00000 0 4826223.676 14885536.265 -20118519.604 10 0 60901 7200.00000 0 2659844.165 13504641.992 -21452439.609 10 0 60901 8100.00000 0 277716.647 12217572.208 -22368774.555 10 0 60901 9000.00000 0 -2268716.060 11068889.299 -22849752.105 10 0 60901 9900.00000 0 -4920289.925 10093784.259 -22886090.479 10 0 60901 10800.00000 0 -7612347.572 9316672.635 -22477173.447 10 0 60901 11700.00000 0 -10277201.593 8750263.723 -21631055.345 10 0 60901 12600.00000 0 -12846730.838 8395141.123 -20364296.532 10 0 60901 13500.00000 0 -15255001.772 8239871.015 -18701633.031 10 0 60901 14400.00000 0 -17440806.099 8261632.210 -16675487.242 10 0 60901 15300.00000 0 -19350009.429 8427340.033 -14325329.658 10 0 60901 16200.00000 0 -20937613.778 8695215.332 -11696904.399 10 0 60901 17100.00000 0 -22169448.821 9016731.180 -8841333.952 10 0 60901 18000.00000 0 -23023422.343 9338854.085 -5814120.907 10 0 60901 18900.00000 0 -23490278.976 9606484.191 -2674066.419 10 0 60901 19800.00000 0 -23573836.850 9764990.804 517873.278 10 0 60901 20700.00000 0 -23290693.743 9762735.683 3699769.813 10 0 60901 21600.00000 0 -22669416.457 9553477.325 6809921.952 10 0 60901 22500.00000 0 -21749248.669 9098554.647 9788047.944 10 0 60901 23400.00000 0 -20578392.471 8368757.940 12576447.967 10 0 60901 24300.00000 0 -19211936.356 7345808.244 15121114.549 10 0 60901 25200.00000 0 -17709516.809 6023382.739 17372770.114 10 0 60901 26100.00000 0 -16132811.394 4407642.735 19287812.315 10 0 60901 27000.00000 0 -14542967.846 2517241.501 20829149.848 10 0 60901 27900.00000 0 -12998075.952 382810.603 21966913.543 10 0 60901 28800.00000 0 -11550786.964 -1954055.061 22679029.852 10 0 60901 29700.00000 0 -10246178.960 -4442272.853 22951646.402 10 0 60901 30600.00000 0 -9119956.294 -7023149.014 22779401.790 10 0 60901 31500.00000 0 -8197057.483 -9632580.231 22165534.497 10 0 60901 32400.00000 0 -7490729.076 -12203490.596 21121828.493 10 0 60901 33300.00000 0 -7002103.865 -14668404.557 19668395.885 10 0 60901 34200.00000 0 -6720301.069 -16962050.375 17833299.823 10 0 60901 35100.00000 0 -6623044.477 -19023887.051 15652023.703 10 0 60901 36000.00000 0 -6677772.971 -20800450.168 13166795.632 10 0 60901 36900.00000 0 -6843197.194 -22247419.157 10425779.960 10 0 60901 37800.00000 0 -7071237.116 -23331319.489 7482150.494 10 0 60901 38700.00000 0 -7309258.960 -24030788.157 4393062.566 10 0 60901 39600.00000 0 -7502516.834 -24337348.740 1218543.553 10 0 60901 40500.00000 0 -7596695.307 -24255662.817 -1979676.546 10 0 60901 41400.00000 0 -7540444.430 -23803246.529 -5139371.334 10 0 60901 42300.00000 0 -7287798.597 -23009663.737 -8199036.758 10 0 60901 43200.00000 0 -6800375.318 -21915229.600 -11099097.658 10 0 60901 44100.00000 0 -6049259.094 -20569279.268 -13783077.521 10 0 60901 45000.00000 0 -5016488.966 -19028075.042 -16198707.559 10 0 60901 45900.00000 0 -3696085.126 -17352440.714 -18298952.542 10 0 60901 46800.00000 0 -2094569.693 -15605223.385 -20042932.734 10 0 60901 47700.00000 0 -230958.301 -13848690.227 -21396723.456 10 0 60901 48600.00000 0 1863778.272 -12141970.163 -22334016.592 10 0 60901 49500.00000 0 4147760.796 -10538648.253 -22836631.240 10 0 60901 50400.00000 0 6569713.363 -9084613.732 -22894863.865 10 0 60901 51300.00000 0 9070877.502 -7816251.653 -22507671.596 10 0 60901 52200.00000 0 11587248.961 -6759053.192 -21682685.613 10 0 60901 53100.00000 0 14052044.017 -5926701.863 -20436054.913 10 0 60901 54000.00000 0 16398292.604 -5320672.577 -18792123.993 10 0 60901 54900.00000 0 18561450.365 -4930358.792 -16782951.189 10 0 60901 55800.00000 0 20481920.962 -4733720.733 -14447677.473 10 0 60901 56700.00000 0 22107383.856 -4698425.670 -11831758.367 10 0 60901 57600.00000 0 23394831.000 -4783430.636 -8986074.252 10 0 60901 58500.00000 0 24312228.122 -4940939.370 -5965936.761 10 0 60901 59400.00000 0 24839732.130 -5118649.706 -2830010.895 10 0 60901 60300.00000 0 24970414.780 -5262195.500 360825.893 10 0 60901 61200.00000 0 24710463.515 -5317679.271 3544665.191 10 0 60901 62100.00000 0 24078852.254 -5234188.094 6659766.608 10 0 60901 63000.00000 0 23106497.039 -4966186.261 9645751.001 10 0 60901 63900.00000 0 21834932.852 -4475683.632 12444764.917 10 0 60901 64800.00000 0 20314567.716 -3734088.200 15002594.123 10 0 60901 65700.00000 0 18602587.497 -2723664.787 17269705.251 10 0 60901 66600.00000 0 16760599.058 -1438538.309 19202196.164 10 0 60901 67500.00000 0 14852109.880 114800.972 20762637.605 10 0 60901 68400.00000 0 12939948.695 1917512.147 21920790.802 10 0 60901 69300.00000 0 11083733.808 3938938.803 22654188.037 10 0 60901 70200.00000 0 9337493.549 6137643.724 22948565.697 10 0 60901 71100.00000 0 7747536.880 8462901.727 22798141.875 10 0 60901 72000.00000 0 6350661.839 10856590.364 22205733.246 10 0 60901 72900.00000 0 5172775.590 13255401.785 21182708.678 10 0 60901 73800.00000 0 4227982.955 15593285.612 19748779.789 10 0 60901 74700.00000 0 3518181.132 17804022.831 17931631.518 10 0 60901 75600.00000 0 3033177.360 19823824.834 15766398.635 10 0 60901 76500.00000 0 2751324.671 21593850.176 13294996.983 10 0 60901 77400.00000 0 2640649.217 23062534.409 10565321.165 10 0 60901 78300.00000 0 2660421.914 24187635.537 7630323.110 10 0 60901 79200.00000 0 2763108.268 24937909.048 4546988.612 10 0 60901 80100.00000 0 2896613.920 25294341.492 1375231.335 10 0 60901 81000.00000 0 3006730.545 25250889.936 -1823274.218 10 0 60901 81900.00000 0 3039677.851 24814695.281 -4986297.682 10 0 60901 82800.00000 0 2944632.908 24005759.670 -8052271.499 10 0 60901 83700.00000 0 2676138.307 22856101.005 -10961498.608 10 0 60901 84600.00000 0 2196285.562 21408419.867 -13657324.531 10 0 60901 85500.00000 0 1476579.643 19714335.007 -16087249.920 10 0 60902 0.00000 0 499404.201 17832262.096 -18203960.780 10 0 60902 900.00000 0 -740976.595 15825024.371 -19966256.646 10 0 60902 1800.00000 0 -2237921.912 13757298.649 -21339855.381 10 0 60902 2700.00000 0 -3972447.666 11693001.076 -22298062.543 10 0 60902 3600.00000 0 -5913787.813 9692725.030 -22822289.461 10 0 60902 4500.00000 0 -8020461.173 7811337.634 -22902411.403 10 0 60902 5400.00000 0 -10241799.523 6095835.425 -22536959.126 10 0 60902 6300.00000 0 -12519873.364 4583548.261 -21733140.604 10 0 60902 7200.00000 0 -14791735.020 3300765.664 -20506693.030 10 0 60902 8100.00000 0 -16991885.487 2261841.698 -18881568.539 10 0 60902 9000.00000 0 -19054862.134 1468814.271 -16889460.178 10 0 60902 9900.00000 0 -20917839.266 911552.955 -14569177.820 10 0 60902 10800.00000 0 -22523133.168 568427.206 -11965886.515 10 0 60902 11700.00000 0 -23820507.257 407464.950 -9130222.436 10 0 60902 12600.00000 0 -24769181.439 387950.995 -6117303.975 10 0 60902 13500.00000 0 -25339462.211 462396.281 -2985657.562 10 0 60902 14400.00000 0 -25513926.071 578793.585 203920.665 10 0 60902 15300.00000 0 -25288107.523 683063.400 3389544.876 10 0 60902 16200.00000 0 -24670663.787 721586.008 6509438.246 10 0 60902 17100.00000 0 -23683010.228 643712.334 9503127.013 10 0 60902 18000.00000 0 -22358442.531 404147.412 12312606.893 10 0 60902 18900.00000 0 -20740782.972 -34894.162 14883459.649 10 0 60902 19800.00000 0 -18882607.702 -701851.623 17165898.764 10 0 60902 20700.00000 0 -16843129.116 -1614377.643 19115724.762 10 0 60902 21600.00000 0 -14685821.362 -2778354.901 20695172.598 10 0 60902 22500.00000 0 -12475887.279 -4187411.411 21873635.720 10 0 60902 23400.00000 0 -10277671.377 -5822955.707 22628253.675 10 0 60902 24300.00000 0 -8152125.355 -7654731.613 22944352.632 10 0 60902 25200.00000 0 -6154430.351 -9641870.938 22815730.792 10 0 60902 26100.00000 0 -4331873.632 -11734401.924 22244783.234 10 0 60902 27000.00000 0 -2722066.918 -13875152.444 21242463.555 10 0 60902 27900.00000 0 -1351579.618 -16001970.575 19828082.346 10 0 60902 28800.00000 0 -235043.271 -18050171.656 18028945.451 10 0 60902 29700.00000 0 625235.826 -19955111.288 15879837.785 10 0 60902 30600.00000 0 1239139.837 -21654777.909 13422361.379 10 0 60902 31500.00000 0 1628084.185 -23092297.159 10704139.228 10 0 60902 32400.00000 0 1823871.447 -24218243.326 7777899.257 10 0 60902 33300.00000 0 1867102.575 -24992660.619 4700455.375 10 0 60902 34200.00000 0 1805212.578 -25386708.676 1531605.003 10 0 60902 35100.00000 0 1690214.057 -25383862.147 -1667035.520 10 0 60902 36000.00000 0 1576244.612 -24980612.742 -4833234.623 10 0 60902 36900.00000 0 1517022.998 -24186643.111 -7905364.090 10 0 60902 37800.00000 0 1563322.924 -23024464.270 -10823607.847 10 0 60902 38700.00000 0 1760573.019 -21528531.158 -13531136.350 10 0 60902 39600.00000 0 2146686.109 -19743873.153 -15975222.552 10 0 60902 40500.00000 0 2750211.285 -17724297.091 -18108276.778 10 0 60902 41400.00000 0 3588888.422 -15530238.413 -19888779.622 10 0 60902 42300.00000 0 4668667.535 -13226351.015 -21282094.171 10 0 60902 43200.00000 0 5983235.513 -10878937.202 -22261141.593 10 0 60902 44100.00000 0 7514071.135 -8553325.666 -22806926.986 10 0 60902 45000.00000 0 9231026.748 -6311307.326 -22908905.554 10 0 60902 45900.00000 0 11093412.695 -4208736.063 -22565182.401 10 0 60902 46800.00000 0 13051539.361 -2293394.067 -21782542.593 10 0 60902 47700.00000 0 15048652.359 -603210.138 -20576311.436 10 0 60902 48600.00000 0 17023179.923 835095.871 -18970048.204 10 0 60902 49500.00000 0 18911198.469 2006887.371 -16995079.750 10 0 60902 50400.00000 0 20649013.123 2909969.335 -14689883.499 10 0 60902 51300.00000 0 22175745.298 3554417.598 -12099332.215 10 0 60902 52200.00000 0 23435819.100 3961888.381 -9273815.576 10 0 60902 53100.00000 0 24381242.692 4164439.097 -6268256.009 10 0 60902 54000.00000 0 24973589.386 4202911.930 -3141038.247 10 0 60902 54900.00000 0 25185595.943 4124949.946 47126.295 10 0 60902 55800.00000 0 25002311.675 3982730.744 3234377.967 10 0 60902 56700.00000 0 24421750.829 3830514.272 6358907.138 10 0 60902 57600.00000 0 23455021.577 3722109.017 9360148.979 10 0 60902 58500.00000 0 22125926.769 3708363.840 12179951.746 10 0 60902 59400.00000 0 20470053.609 3834791.402 14763696.292 10 0 60902 60300.00000 0 18533390.473 4139423.332 17061345.727 10 0 60902 61200.00000 0 16370528.605 4650987.359 19028405.639 10 0 60902 62100.00000 0 14042523.274 5387483.101 20626777.229 10 0 60902 63000.00000 0 11614502.783 6355216.498 21825487.810 10 0 60902 63900.00000 0 9153123.868 7548333.871 22601285.417 10 0 60902 64800.00000 0 6723978.069 8948875.931 22939086.807 10 0 60902 65700.00000 0 4389055.470 10527350.659 22832270.630 10 0 60902 66600.00000 0 2204369.850 12243802.554 22282810.243 10 0 60902 67500.00000 0 217842.606 14049335.336 21301243.355 10 0 60902 68400.00000 0 -1532467.695 15888026.283 19906478.439 10 0 60902 69300.00000 0 -3019717.337 17699154.014 18125440.703 10 0 60902 70200.00000 0 -4229155.318 19419648.192 15992563.274 10 0 60902 71100.00000 0 -5158490.815 20986659.910 13549132.104 10 0 60902 72000.00000 0 -5817735.012 22340145.927 10842496.061 10 0 60902 72900.00000 0 -6228524.061 23425358.691 7925156.354 10 0 60902 73800.00000 0 -6422951.615 24195137.436 4853752.169 10 0 60902 74700.00000 0 -6441960.300 24611903.361 1687961.777 10 0 60902 75600.00000 0 -6333360.250 24649273.933 -1510659.569 10 0 60902 76500.00000 0 -6149559.015 24293227.081 -4679881.975 10 0 60902 77400.00000 0 -5945099.712 23542764.927 -7758019.329 10 0 60902 78300.00000 0 -5774112.680 22410047.811 -10685139.153 10 0 60902 79200.00000 0 -5687789.904 20919991.899 -13404239.224 10 0 60902 80100.00000 0 -5731990.539 19109346.539 -15862366.944 10 0 60902 81000.00000 0 -5945080.370 17025289.654 -18011658.680 10 0 60902 81900.00000 0 -6356098.000 14723599.962 -19810278.120 10 0 60902 82800.00000 0 -6983326.518 12266482.788 -21223234.798 10 0 60902 83700.00000 0 -7833332.025 9720140.684 -22223066.702 10 0 60902 84600.00000 0 -8900510.399 7152190.723 -22790373.705 10 0 60902 85500.00000 0 -10167161.995 4629036.542 -22914191.708 10 0 60903 0.00000 0 -11604091.403 2213304.981 -22592200.695 10 0 60903 900.00000 0 -13171708.062 -38547.369 -21830762.942 10 0 60903 1800.00000 0 -14821579.632 -2078355.315 -20644791.674 10 0 60903 2700.00000 0 -16498375.442 -3868010.799 -19057452.728 10 0 60903 3600.00000 0 -18142116.537 -5380797.666 -17099705.782 10 0 60903 4500.00000 0 -19690638.538 -6602242.703 -14809694.465 10 0 60903 5400.00000 0 -21082163.845 -7530449.079 -12231997.584 10 0 60903 6300.00000 0 -22257875.228 -8175900.329 -9416756.369 10 0 60903 7200.00000 0 -23164382.868 -8560745.198 -6418695.084 10 0 60903 8100.00000 0 -23755981.465 -8717595.452 -3296054.385 10 0 60903 9000.00000 0 -23996602.939 -8687889.102 -109458.399 10 0 60903 9900.00000 0 -23861383.089 -8519889.570 3079262.121 10 0 60903 10800.00000 0 -23337776.900 -8266406.428 6208267.589 10 0 60903 11700.00000 0 -22426176.109 -7982334.723 9216905.067 10 0 60903 12600.00000 0 -21140003.552 -7722117.253 12046878.346 10 0 60903 13500.00000 0 -19505280.554 -7537237.010 14643370.342 10 0 60903 14400.00000 0 -17559685.544 -7473845.484 16956096.647 10 0 60903 15300.00000 0 -15351143.001 -7570626.487 18940270.568 10 0 60903 16200.00000 0 -12936001.123 -7856985.207 20557461.898 10 0 60903 17100.00000 0 -10376873.302 -8351638.432 21776333.793 10 0 60903 18000.00000 0 -7740232.153 -9061665.230 22573244.344 10 0 60903 18900.00000 0 -5093854.776 -9982058.272 22932702.015 10 0 60903 19800.00000 0 -2504223.856 -11095795.309 22847666.594 10 0 60903 20700.00000 0 -33991.015 -12374428.903 22319689.992 10 0 60903 21600.00000 0 2260393.735 -13779171.095 21358893.918 10 0 60903 22500.00000 0 4330789.302 -15262429.226 19983784.254 10 0 60903 23400.00000 0 6139120.987 -16769730.255 18220904.754 10 0 60903 24300.00000 0 7658715.794 -18241954.576 16104335.599 10 0 60903 25200.00000 0 8875160.374 -19617787.052 13675045.179 10 0 60903 26100.00000 0 9786646.065 -20836283.380 10980106.410 10 0 60903 27000.00000 0 10403786.663 -21839444.504 8071791.660 10 0 60903 27900.00000 0 10748916.675 -22574690.833 5006562.985 10 0 60903 28800.00000 0 10854899.593 -22997131.563 1843976.876 10 0 60903 29700.00000 0 10763496.672 -23071532.588 -1354475.281 10 0 60903 30600.00000 0 10523365.458 -22773898.742 -4526568.141 10 0 60903 31500.00000 0 10187773.330 -22092602.202 -7610560.617 10 0 60903 32400.00000 0 9812123.694 -21029007.973 -10546406.725 10 0 60903 33300.00000 0 9451400.657 -19597568.694 -13276934.414 10 0 60903 34200.00000 0 9157641.627 -17825383.610 -15748968.281 10 0 60903 35100.00000 0 8977546.120 -15751239.358 -17914373.347 10 0 60903 36000.00000 0 8950323.198 -13424172.289 -19730998.790 10 0 60903 36900.00000 0 9105869.654 -10901612.328 -21163502.737 10 0 60903 37800.00000 0 9463356.861 -8247186.044 -22184041.822 10 0 60903 38700.00000 0 10030286.555 -5528270.818 -22772812.159 10 0 60903 39600.00000 0 10802055.855 -2813402.343 -22918431.434 10 0 60903 40500.00000 0 11762050.007 -169643.560 -22618155.130 10 0 60903 41400.00000 0 12882259.010 2339975.545 -21877923.179 10 0 60903 42300.00000 0 14124392.005 4658841.076 -20712236.687 10 0 60903 43200.00000 0 15441442.375 6738862.816 -19143867.655 10 0 60903 44100.00000 0 16779637.460 8542219.587 -17203407.836 10 0 60903 45000.00000 0 18080690.654 10042671.023 -14928665.919 10 0 60903 45900.00000 0 19284260.942 11226382.729 -12363925.199 10 0 60903 46800.00000 0 20330516.307 12092232.280 -9559076.490 10 0 60903 47700.00000 0 21162693.063 12651585.323 -6568643.521 10 0 60903 48600.00000 0 21729543.514 12927553.250 -3450720.120 10 0 60903 49500.00000 0 21987569.068 12953765.611 -265840.084 10 0 60903 50400.00000 0 21902945.074 12772710.676 2924197.977 10 0 60903 51300.00000 0 21453056.738 12433715.491 6057527.868 10 0 60903 52200.00000 0 20627581.813 11990651.634 9073411.872 10 0 60903 53100.00000 0 19429074.841 11499464.113 11913412.549 10 0 60903 54000.00000 0 17873028.551 11015627.880 14522517.932 10 0 60903 54900.00000 0 15987409.742 10591639.138 16850198.919 10 0 60903 55800.00000 0 13811688.744 10274646.845 18851379.082 10 0 60903 56700.00000 0 11395402.386 10104323.664 20487299.068 10 0 60903 57600.00000 0 8796309.412 10111065.453 21726259.793 10 0 60903 58500.00000 0 6078213.991 10314594.612 22544230.962 10 0 60903 59400.00000 0 3308546.334 10723025.816 22925313.902 10 0 60903 60300.00000 0 555799.302 11332433.538 22862050.244 10 0 60903 61200.00000 0 -2113074.226 12126940.050 22355570.663 10 0 60903 62100.00000 0 -4635196.832 13079321.166 21415580.569 10 0 60903 63000.00000 0 -6954131.112 14152105.524 20060182.422 10 0 60903 63900.00000 0 -9021976.222 15299122.730 18315537.195 10 0 60903 64800.00000 0 -10801110.203 16467436.853 16215370.340 10 0 60903 65700.00000 0 -12265506.093 17599585.415 13800330.518 10 0 60903 66600.00000 0 -13401567.209 18636030.834 11117212.252 10 0 60903 67500.00000 0 -14208446.821 19517721.849 8218056.423 10 0 60903 68400.00000 0 -14697838.801 20188657.230 5159145.208 10 0 60903 69300.00000 0 -14893248.014 20598343.379 1999910.515 10 0 60903 70200.00000 0 -14828771.241 20704041.305 -1198222.947 10 0 60903 71100.00000 0 -14547440.266 20472706.952 -4373037.161 10 0 60903 72000.00000 0 -14099197.550 19882541.447 -7462738.762 10 0 60903 72900.00000 0 -13538590.782 18924084.220 -10407170.856 10 0 60903 73800.00000 0 -12922284.743 17600801.254 -13148994.006 10 0 60903 74700.00000 0 -12306496.829 15929142.195 -15634812.263 10 0 60903 75600.00000 0 -11744465.918 13938062.664 -17816221.328 10 0 60903 76500.00000 0 -11284062.693 11668030.897 -19650757.672 10 0 60903 77400.00000 0 -10965643.487 9169559.725 -21102729.567 10 0 60903 78300.00000 0 -10820239.049 6501325.020 -22143913.608 10 0 60903 79200.00000 0 -10868155.229 3727949.072 -22754103.225 10 0 60903 80100.00000 0 -11118044.869 917541.435 -22921498.715 10 0 60903 81000.00000 0 -11566489.993 -1860900.300 -22642931.647 10 0 60903 81900.00000 0 -12198111.692 -4540121.657 -21923919.792 10 0 60903 82800.00000 0 -12986202.657 -7057165.098 -20778552.044 10 0 60903 83700.00000 0 -13893855.221 -9355740.796 -19229206.124 10 0 60903 84600.00000 0 -14875536.881 -11388316.498 -17306105.043 10 0 60903 85500.00000 0 -15879046.388 -13117840.571 -15046721.408 99